SCP
0 0 0 0 0 0 0 0 0 -0 -0 -0 0 0 0 0 0 0 0 -0 -0 -0 -0 -0 -0 -0 -0 -0 0 0 -0 0 0 0 0 0 0 0 0 0 0 0 0
0 0 0 0 0 0 0 0 0 0 -0 0 -0 -0 -0 0 0 0 0 0 0 0 0 0 0 -0 -0 0 0 0 0 0 0 0 0 0 0 0 0 0 0 0 0
0 0 0 0 0 0 0 0 0 0 0 0 0 0 0 0 0 0 0 0 0 0 0 0 0 0 0 0 0 0 0 0 0 0 0 0 0 0 0 0 0 0 0
0 0 0 0 0 0 0 0 0 0 0 0 0 0 0 0 0 0 0 0 0 0 0 0 0 0 0 0 0 0 0 0 0 0 0 0 0 0 0 0 0 0 0
0 0 0 0 0 0 0 0 0 0 0 0 0 0 0 0 0 0 0 0 0 0 0 0 0 0 0 0 0 0 0 0 0 0 0 0 0 0 0 0 0 0 0
0 0 0 0 0 0 0 0 0 0 0 0 0 0 0 0 0 0 0 0 0 0 0 0 0 0 0 0 0 0 0 0 0 0 0 0 0 0 0 0 0 0 0
0 0 0 0 0 0 0 0 0 0 0 0 0 0 0 0 0 0 0 0 0 0 0 0 0 0 0 0 0 0 0 0 0 0 0 0 0 0 0 0 0 0 0
0 0 0 0 0 0 0 0 0 0 0 0 0 0 0 0 0 0 0 0 0 0 0 0 0 0 0 0 0 0 0 0 0 0 0 0 0 0 0 0 0 0 0
0 0 0 0 0 0 0 0 0 0 0 0 0 0 0 0 0 0 0 0 0 0 0 0 0 0 0 0 0 0 0 0 0 0 0 0 0 0 0 0 0 0 0
0 0 0 0 0 0 0 0 0 0 0 0 0 0 0 0 0 0 0 0 0 0 0 0 0 0 0 0 0 0 0 0 0 0 0 0 0 0 0 0 0 0 0
0 0 0 0 0 0 0 0 0 0 0 0 0 0 0 0 0 0 0 0 0 0 0 0 0 0 0 0 0 0 0 0 0 0 0 0 0 0 0 0 0 0 0
0 0 0 0 0 0 0 0 0 0 0 0 0 0 0 0 0 0 0 0 0 0 0 0 0 0 0 0 0 0 0 0 0 0 0 0 0 0 0 0 0 0 0
0 0 0 0 0 0 0 0 0 0 0 0 0 0 0 0 0 0 0 0 0 0 0 0 0 0 0 0 0 0 0 0 0 0 0 0 0 0 0 0 0 0 0
0 0 0 0 0 0 0 0 0 0 0 0 0 0 0 0 0 0 0 0 0 0 0 0 0 0 0 0 0 0 0 0 0 0 0 0 0 0 0 0 0 0 0
0 0 0 0 0 0 0 0 0 0 0 0 0 0 0 0 0 0 0 0 0 0 0 0 0 0 0 0 0 0 0 0 0 0 0 0 0 0 0 0 0 0 0
0 0 0 0 0 0 0 0 0 0 0 0 0 0 0 0 0 0 0 0 0 0 0 0 0 0 0 0 0 0 0 0 0 0 0 0 0 0 0 0 0 0 0
0 0 0 0 0 0 0 0 0 0 0 0 0 0 0 0 0 0 0 0 0 0 0 0 0 0 0 0 0 0 0 0 0 0 0 0 0 0 0 0 0 0 0
0 0 0 0 0 0 0 0 0 0 0 0 0 0 0 0 0 0 0 0 0 0 0 0 0 0 0 0 0 0 0 0 0 0 0 0 0 0 0 0 0 0 0
0 0 0 0 0 0 0 0 0 0 0 0 0 0 0 0 0 0 0 0 0 0 0 0 0 0 0 0 0 0 0 0 0 0 0 0 0 0 0 0 0 0 0
0 0 0 0 0 0 0 0 0 0 0 0 0 0 0 0 0 0 0 0 0 0 0 0 0 0 0 0 0 0 0 0 0 0 0 0 0 0 0 0 0 0 0
0 0 0 0 0 0 0 0 0 0 0 0 0 0 0 0 0 0 0 0 0 0 0 0 0 0 0 0 0 0 0 0 0 0 0 0 0 0 0 0 0 0 0
0 0 0 0 0 0 0 0 0 0 0 0 0 0 0 0 0 0 0 0 0 0 0 0 0 0 0 0 0 0 0 0 0 0 0 0 0 0 0 0 0 0 0
0 0 0 0 0 0 0 0 0 0 0 0 0 0 0 0 0 0 0 0 0 0 0 0 0 0 0 0 0 0 0 0 0 0 0 0 0 0 0 0 0 0 0
0 0 0 0 0 0 0 0 0 0 0 0 0 0 0 0 0 0 0 0 0 0 0 0 0 0 0 0 0 0 0 0 0 0 0 0 0 0 0 0 0 0 0
0 0 0 0 0 0 0 0 0 0 0 0 0 0 0 0 0 0 0 0 0 0 0 0 0 0 0 0 0 0 0 0 0 0 0 0 0 0 0 0 0 0 0
0 0 0 0 0 0 0 0 0 0 0 0 0 0 0 0 0 0 0 0 0 0 0 0 0 0 0 0 0 0 0 0 0 0 0 0 0 0 0 0 0 0 0
Wind_Speed_500mb
50 49 47 46 44 43 40 38 35 34 33 33 32 34 33 32 31 26 21 19 18 22 20 18 21 17 16 18 23 25 26 24 22 25 24 26 24 24 25 27 29 30 28
53 51 51 50 48 46 42 41 38 36 34 35 36 37 34 34 30 28 25 27 30 29 27 21 22 24 24 22 24 27 29 29 27 28 29 30 29 27 30 31 32 30 27
58 57 54 53 50 48 46 44 43 43 43 43 44 42 40 36 35 35 37 35 33 33 32 27 25 28 29 28 28 28 30 31 31 30 29 32 31 32 32 33 34 33 36
64 63 62 59 53 51 49 47 44 49 51 49 45 43 43 39 34 33 35 32 34 36 36 33 31 33 33 32 34 34 35 36 35 33 35 34 32 35 35 38 38 38 41
70 70 68 64 58 55 53 51 48 46 49 51 48 46 44 40 34 31 35 35 32 33 34 33 35 36 38 38 37 39 41 42 42 40 41 42 37 38 38 41 42 44 46
75 76 75 72 66 63 59 56 55 48 47 43 46 45 46 44 41 40 41 39 35 33 33 36 38 39 40 42 42 42 43 46 49 48 52 47 43 39 40 46 47 51 54
74 78 81 78 73 73 68 61 56 53 53 47 48 53 51 51 52 51 50 49 48 46 42 43 44 48 47 46 45 43 45 47 51 52 59 62 56 54 48 46 51 55 53
72 70 77 80 78 76 73 68 63 65 60 57 58 55 52 58 63 61 57 54 54 55 52 50 52 52 46 44 47 48 49 49 50 55 57 74 73 74 50 59 53 59 52
73 71 69 73 72 75 77 74 75 71 69 65 67 57 28 38 32 40 48 53 56 55 51 39 36 39 43 45 41 44 50 51 52 53 54 60 85 74 83 67 54 51 46
70 72 72 72 74 70 75 76 73 71 76 82 77 79 77 58 30 19 29 32 34 33 30 35 40 39 37 38 40 50 51 49 44 42 46 48 75 92 87 72 51 43 47
73 72 75 75 76 75 76 80 76 78 78 86 88 85 83 79 75 62 43 35 38 38 31 37 42 38 37 38 42 46 46 44 45 49 51 47 45 66 56 53 56 40 33
77 77 79 82 82 79 73 75 75 80 85 83 91 88 86 88 83 81 73 64 55 43 40 38 34 40 39 39 46 50 49 47 46 44 49 50 43 66 67 66 38 24 28
66 70 80 77 78 79 77 76 79 78 85 87 94 94 84 82 82 70 54 45 40 45 39 41 38 36 39 45 44 43 40 41 43 45 46 47 44 58 68 52 32 40 41
61 58 62 69 69 70 71 75 75 73 72 76 80 83 79 75 79 42 44 44 38 40 40 38 42 42 47 43 40 37 40 45 41 43 43 40 39 62 66 51 48 53 49
55 53 54 56 62 64 65 70 72 73 72 73 75 76 68 55 61 56 62 40 37 30 41 43 39 43 46 47 44 44 40 37 38 36 38 30 45 65 60 54 63 66 66
58 53 56 57 55 55 61 65 68 71 70 68 64 62 68 72 44 39 42 41 38 39 37 36 40 47 44 44 40 39 40 35 35 32 27 28 37 62 68 71 72 72 59
56 54 55 56 56 57 63 65 69 65 67 66 68 64 52 48 43 38 40 34 31 31 33 42 45 41 36 38 35 34 36 33 33 31 31 27 47 66 74 77 79 68 56
53 55 55 49 53 62 62 70 71 63 55 60 55 53 48 40 35 36 29 25 25 28 33 42 41 41 42 39 34 33 34 27 28 22 26 26 31 58 75 81 77 67 56
35 39 49 55 58 57 56 58 61 61 57 53 52 46 39 40 31 25 23 24 25 31 39 45 43 46 43 38 37 33 33 37 33 31 29 28 38 53 72 77 84 76 48
34 42 44 46 48 46 46 58 56 51 45 42 39 41 33 26 23 21 19 22 31 36 37 40 45 45 43 40 41 37 37 38 40 35 35 37 66 69 87 90 78 57 49
39 41 44 44 39 44 53 55 47 42 38 38 34 30 27 25 24 21 20 28 30 32 36 46 45 44 45 43 41 40 41 40 42 41 42 55 72 75 68 58 49 48 47
36 41 39 44 50 48 39 32 28 32 34 32 29 26 24 21 18 20 22 24 25 34 47 45 46 48 47 42 44 43 42 43 46 47 50 63 70 68 69 63 63 61 58
39 42 43 44 40 36 32 33 36 34 31 28 26 25 21 20 22 25 29 28 31 44 49 48 50 49 49 43 43 43 43 45 50 48 43 52 64 73 75 72 74 62 58
47 48 44 40 41 41 39 38 35 31 29 26 23 26 31 32 33 36 32 37 46 48 47 52 53 51 49 46 44 44 44 42 44 47 52 56 57 76 74 71 62 58 57
48 44 43 44 43 43 39 34 30 26 23 26 28 31 31 32 36 41 45 52 51 50 55 57 55 52 48 46 46 46 46 43 51 54 54 56 59 62 76 74 64 60 60
53 53 52 45 42 39 36 34 28 26 27 29 28 34 42 47 42 43 50 53 56 51 55 58 59 54 52 49 48 48 47 45 52 59 58 51 61 64 65 67 63 62 61
Wind_Direction_500mb
212 210 211 212 213 214 213 215 215 215 216 216 217 220 231 242 245 246 249 260 261 270 279 288 292 289 278 277 284 286 284 288 285 277 273 271 275 287 299 302 307 304 301
218 219 219 218 218 220 221 223 224 226 228 229 229 235 235 242 252 258 264 270 269 270 276 282 281 285 284 272 278 281 284 283 282 278 270 268 273 283 296 306 309 304 301
223 224 225 227 225 226 225 227 228 228 228 232 233 237 241 247 263 272 273 272 268 267 271 276 277 283 283 277 280 275 276 277 278 279 266 263 270 277 290 299 299 297 299
228 229 229 230 230 228 228 228 229 233 231 234 237 238 238 241 250 268 272 275 272 272 276 282 286 285 282 282 284 278 274 273 275 272 262 263 270 271 281 284 292 291 292
231 233 234 234 232 232 230 229 231 237 234 233 233 233 236 239 245 257 262 271 277 282 278 279 286 288 286 284 282 282 278 277 277 275 275 271 268 271 275 282 291 288 287
235 235 236 237 235 234 234 233 233 233 234 234 232 234 236 241 248 255 262 264 264 270 271 274 285 292 292 287 282 285 285 283 279 274 273 276 277 278 280 284 284 286 281
238 238 239 238 235 237 236 236 239 237 235 233 238 242 247 248 252 256 260 263 265 268 275 280 285 289 290 288 282 280 281 280 280 278 274 275 281 287 287 283 292 284 279
236 238 238 242 240 237 237 235 235 239 237 232 235 243 248 251 251 255 259 260 264 267 273 278 283 289 288 288 284 280 279 272 272 272 281 268 266 281 284 281 295 283 272
236 238 239 241 244 241 238 238 239 235 240 239 235 232 234 240 250 255 256 258 260 265 275 279 284 287 286 282 281 283 287 274 273 274 272 282 268 266 274 276 288 287 281
243 238 239 241 245 243 242 241 239 240 241 242 237 235 240 249 249 250 252 248 246 256 258 269 273 280 283 281 290 293 290 289 285 285 280 283 282 258 255 258 278 280 277
253 248 244 243 244 244 244 244 242 240 242 245 241 241 245 246 250 246 249 240 253 258 261 275 273 276 284 280 288 290 290 291 289 285 283 280 255 237 241 257 282 268 260
253 252 249 247 244 244 244 245 246 246 247 247 249 250 251 250 250 251 253 256 266 266 264 270 276 279 284 279 281 287 283 284 288 286 280 273 274 257 253 265 249 237 229
252 252 251 252 250 249 244 247 243 246 249 252 254 256 256 253 257 261 259 258 255 265 262 270 284 290 289 292 290 288 283 279 280 284 279 279 272 264 257 232 223 208 212
259 261 256 255 253 252 250 246 247 248 252 255 258 258 258 261 249 254 266 257 253 261 269 280 284 285 289 295 297 295 289 284 278 279 274 268 272 262 245 218 205 210 218
259 259 255 261 255 256 252 253 247 243 250 256 261 256 251 253 254 254 251 237 249 251 275 273 279 286 293 297 295 293 291 292 284 284 278 267 259 242 227 218 218 224 229
255 253 263 256 254 255 249 248 246 247 253 258 246 246 253 261 230 231 247 252 254 252 251 270 278 279 286 290 291 294 287 285 281 279 289 265 256 244 239 234 237 232 220
251 254 263 255 256 257 250 252 250 248 257 259 255 257 238 221 233 244 247 244 247 251 263 269 275 285 286 288 283 291 281 278 280 280 276 280 248 243 243 241 241 222 225
252 252 255 257 249 253 256 259 254 254 260 238 232 243 242 244 247 235 231 230 243 266 274 276 285 291 293 289 285 288 287 268 280 283 291 284 257 252 251 243 224 229 230
242 251 257 259 260 260 259 252 245 242 230 236 239 230 235 232 224 222 230 250 263 264 266 274 297 290 287 285 281 289 280 275 282 292 275 270 261 260 252 245 237 229 225
258 259 263 263 258 253 246 231 223 220 227 217 224 229 221 216 222 235 244 258 275 275 278 281 284 279 281 282 281 274 282 285 288 285 271 261 243 249 239 233 225 223 228
255 257 262 258 245 240 217 213 212 208 210 211 207 204 209 216 224 231 260 277 278 281 289 282 277 277 277 279 280 283 283 283 282 270 261 242 234 231 224 231 230 235 229
258 261 251 234 214 202 199 199 204 205 196 196 200 207 215 219 244 269 274 276 283 289 280 276 278 276 276 279 280 280 281 279 269 271 255 242 233 234 238 235 238 239 229
234 226 215 207 203 201 201 198 196 193 191 197 206 209 223 260 272 275 275 280 288 278 274 276 274 274 276 271 272 274 276 276 275 270 263 250 245 244 241 243 242 237 230
219 207 201 193 194 193 194 195 194 194 197 206 223 249 260 258 256 261 271 283 274 272 274 275 277 278 274 271 267 267 269 269 269 269 259 256 251 247 238 237 234 233 223
204 202 201 201 201 194 192 194 198 208 230 250 262 268 270 280 277 275 275 274 272 273 272 273 273 274 274 271 266 263 260 258 259 262 257 252 257 249 240 237 232 226 221
212 204 198 198 197 199 195 200 215 249 258 260 270 272 267 261 263 272 276 278 277 277 272 269 271 272 270 266 264 260 260 256 256 258 256 251 252 246 234 236 226 220 213
Wind_Speed_850mb
50 49 47 46 44 43 40 38 35 34 33 33 32 34 33 32 31 26 21 19 18 22 20 18 21 17 16 18 23 25 26 24 22 25 24 26 24 24 25 27 29 30 28
53 51 51 50 48 46 42 41 38 36 34 35 36 37 34 34 30 28 25 27 30 29 27 21 22 24 24 22 24 27 29 29 27 28 29 30 29 27 30 31 32 30 27
58 57 54 53 50 48 46 44 43 43 43 43 44 42 40 36 35 35 37 35 33 33 32 27 25 28 29 28 28 28 30 31 31 30 29 32 31 32 32 33 34 33 36
64 63 62 59 53 51 49 47 44 49 51 49 45 43 43 39 34 33 35 32 34 36 36 33 31 33 33 32 34 34 35 36 35 33 35 34 32 35 35 38 38 38 41
70 70 68 64 58 55 53 51 48 46 49 51 48 46 44 40 34 31 35 35 32 33 34 33 35 36 38 38 37 39 41 42 42 40 41 42 37 38 38 41 42 44 46
75 76 75 72 66 63 59 56 55 48 47 43 46 45 46 44 41 40 41 39 35 33 33 36 38 39 40 42 42 42 43 46 49 48 52 47 43 39 40 46 47 51 54
74 78 81 78 73 73 68 61 56 53 53 47 48 53 51 51 52 51 50 49 48 46 42 43 44 48 47 46 45 43 45 47 51 52 59 62 56 54 48 46 51 55 53
72 70 77 80 78 76 73 68 63 65 60 57 58 55 52 58 63 61 57 54 54 55 52 50 52 52 46 44 47 48 49 49 50 55 57 74 73 74 50 59 53 59 52
73 71 69 73 72 75 77 74 75 71 69 65 67 57 28 38 32 40 48 53 56 55 51 39 36 39 43 45 41 44 50 51 52 53 54 60 85 74 83 67 54 51 46
70 72 72 72 74 70 75 76 73 71 76 82 77 79 77 58 30 19 29 32 34 33 30 35 40 39 37 38 40 50 51 49 44 42 46 48 75 92 87 72 51 43 47
73 72 75 75 76 75 76 80 76 78 78 86 88 85 83 79 75 62 43 35 38 38 31 37 42 38 37 38 42 46 46 44 45 49 51 47 45 66 56 53 56 40 33
77 77 79 82 82 79 73 75 75 80 85 83 91 88 86 88 83 81 73 64 55 43 40 38 34 40 39 39 46 50 49 47 46 44 49 50 43 66 67 66 38 24 28
66 70 80 77 78 79 77 76 79 78 85 87 94 94 84 82 82 70 54 45 40 45 39 41 38 36 39 45 44 43 40 41 43 45 46 47 44 58 68 52 32 40 41
61 58 62 69 69 70 71 75 75 73 72 76 80 83 79 75 79 42 44 44 38 40 40 38 42 42 47 43 40 37 40 45 41 43 43 40 39 62 66 51 48 53 49
55 53 54 56 62 64 65 70 72 73 72 73 75 76 68 55 61 56 62 40 37 30 41 43 39 43 46 47 44 44 40 37 38 36 38 30 45 65 60 54 63 66 66
58 53 56 57 55 55 61 65 68 71 70 68 64 62 68 72 44 39 42 41 38 39 37 36 40 47 44 44 40 39 40 35 35 32 27 28 37 62 68 71 72 72 59
56 54 55 56 56 57 63 65 69 65 67 66 68 64 52 48 43 38 40 34 31 31 33 42 45 41 36 38 35 34 36 33 33 31 31 27 47 66 74 77 79 68 56
53 55 55 49 53 62 62 70 71 63 55 60 55 53 48 40 35 36 29 25 25 28 33 42 41 41 42 39 34 33 34 27 28 22 26 26 31 58 75 81 77 67 56
35 39 49 55 58 57 56 58 61 61 57 53 52 46 39 40 31 25 23 24 25 31 39 45 43 46 43 38 37 33 33 37 33 31 29 28 38 53 72 77 84 76 48
34 42 44 46 48 46 46 58 56 51 45 42 39 41 33 26 23 21 19 22 31 36 37 40 45 45 43 40 41 37 37 38 40 35 35 37 66 69 87 90 78 57 49
39 41 44 44 39 44 53 55 47 42 38 38 34 30 27 25 24 21 20 28 30 32 36 46 45 44 45 43 41 40 41 40 42 41 42 55 72 75 68 58 49 48 47
36 41 39 44 50 48 39 32 28 32 34 32 29 26 24 21 18 20 22 24 25 34 47 45 46 48 47 42 44 43 42 43 46 47 50 63 70 68 69 63 63 61 58
39 42 43 44 40 36 32 33 36 34 31 28 26 25 21 20 22 25 29 28 31 44 49 48 50 49 49 43 43 43 43 45 50 48 43 52 64 73 75 72 74 62 58
47 48 44 40 41 41 39 38 35 31 29 26 23 26 31 32 33 36 32 37 46 48 47 52 53 51 49 46 44 44 44 42 44 47 52 56 57 76 74 71 62 58 57
48 44 43 44 43 43 39 34 30 26 23 26 28 31 31 32 36 41 45 52 51 50 55 57 55 52 48 46 46 46 46 43 51 54 54 56 59 62 76 74 64 60 60
53 53 52 45 42 39 36 34 28 26 27 29 28 34 42 47 42 43 50 53 56 51 55 58 59 54 52 49 48 48 47 45 52 59 58 51 61 64 65 67 63 62 61
Wind_Direction_850mb
212 210 211 212 213 214 213 215 215 215 216 216 217 220 231 242 245 246 249 260 261 270 279 288 292 289 278 277 284 286 284 288 285 277 273 271 275 287 299 302 307 304 301
218 219 219 218 218 220 221 223 224 226 228 229 229 235 235 242 252 258 264 270 269 270 276 282 281 285 284 272 278 281 284 283 282 278 270 268 273 283 296 306 309 304 301
223 224 225 227 225 226 225 227 228 228 228 232 233 237 241 247 263 272 273 272 268 267 271 276 277 283 283 277 280 275 276 277 278 279 266 263 270 277 290 299 299 297 299
228 229 229 230 230 228 228 228 229 233 231 234 237 238 238 241 250 268 272 275 272 272 276 282 286 285 282 282 284 278 274 273 275 272 262 263 270 271 281 284 292 291 292
231 233 234 234 232 232 230 229 231 237 234 233 233 233 236 239 245 257 262 271 277 282 278 279 286 288 286 284 282 282 278 277 277 275 275 271 268 271 275 282 291 288 287
235 235 236 237 235 234 234 233 233 233 234 234 232 234 236 241 248 255 262 264 264 270 271 274 285 292 292 287 282 285 285 283 279 274 273 276 277 278 280 284 284 286 281
238 238 239 238 235 237 236 236 239 237 235 233 238 242 247 248 252 256 260 263 265 268 275 280 285 289 290 288 282 280 281 280 280 278 274 275 281 287 287 283 292 284 279
236 238 238 242 240 237 237 235 235 239 237 232 235 243 248 251 251 255 259 260 264 267 273 278 283 289 288 288 284 280 279 272 272 272 281 268 266 281 284 281 295 283 272
236 238 239 241 244 241 238 238 239 235 240 239 235 232 234 240 250 255 256 258 260 265 275 279 284 287 286 282 281 283 287 274 273 274 272 282 268 266 274 276 288 287 281
243 238 239 241 245 243 242 241 239 240 241 242 237 235 240 249 249 250 252 248 246 256 258 269 273 280 283 281 290 293 290 289 285 285 280 283 282 258 255 258 278 280 277
253 248 244 243 244 244 244 244 242 240 242 245 241 241 245 246 250 246 249 240 253 258 261 275 273 276 284 280 288 290 290 291 289 285 283 280 255 237 241 257 282 268 260
253 252 249 247 244 244 244 245 246 246 247 247 249 250 251 250 250 251 253 256 266 266 264 270 276 279 284 279 281 287 283 284 288 286 280 273 274 257 253 265 249 237 229
252 252 251 252 250 249 244 247 243 246 249 252 254 256 256 253 257 261 259 258 255 265 262 270 284 290 289 292 290 288 283 279 280 284 279 279 272 264 257 232 223 208 212
259 261 256 255 253 252 250 246 247 248 252 255 258 258 258 261 249 254 266 257 253 261 269 280 284 285 289 295 297 295 289 284 278 279 274 268 272 262 245 218 205 210 218
259 259 255 261 255 256 252 253 247 243 250 256 261 256 251 253 254 254 251 237 249 251 275 273 279 286 293 297 295 293 291 292 284 284 278 267 259 242 227 218 218 224 229
255 253 263 256 254 255 249 248 246 247 253 258 246 246 253 261 230 231 247 252 254 252 251 270 278 279 286 290 291 294 287 285 281 279 289 265 256 244 239 234 237 232 220
251 254 263 255 256 257 250 252 250 248 257 259 255 257 238 221 233 244 247 244 247 251 263 269 275 285 286 288 283 291 281 278 280 280 276 280 248 243 243 241 241 222 225
252 252 255 257 249 253 256 259 254 254 260 238 232 243 242 244 247 235 231 230 243 266 274 276 285 291 293 289 285 288 287 268 280 283 291 284 257 252 251 243 224 229 230
242 251 257 259 260 260 259 252 245 242 230 236 239 230 235 232 224 222 230 250 263 264 266 274 297 290 287 285 281 289 280 275 282 292 275 270 261 260 252 245 237 229 225
258 259 263 263 258 253 246 231 223 220 227 217 224 229 221 216 222 235 244 258 275 275 278 281 284 279 281 282 281 274 282 285 288 285 271 261 243 249 239 233 225 223 228
255 257 262 258 245 240 217 213 212 208 210 211 207 204 209 216 224 231 260 277 278 281 289 282 277 277 277 279 280 283 283 283 282 270 261 242 234 231 224 231 230 235 229
258 261 251 234 214 202 199 199 204 205 196 196 200 207 215 219 244 269 274 276 283 289 280 276 278 276 276 279 280 280 281 279 269 271 255 242 233 234 238 235 238 239 229
234 226 215 207 203 201 201 198 196 193 191 197 206 209 223 260 272 275 275 280 288 278 274 276 274 274 276 271 272 274 276 276 275 270 263 250 245 244 241 243 242 237 230
219 207 201 193 194 193 194 195 194 194 197 206 223 249 260 258 256 261 271 283 274 272 274 275 277 278 274 271 267 267 269 269 269 269 259 256 251 247 238 237 234 233 223
204 202 201 201 201 194 192 194 198 208 230 250 262 268 270 280 277 275 275 274 272 273 272 273 273 274 274 271 266 263 260 258 259 262 257 252 257 249 240 237 232 226 221
212 204 198 198 197 199 195 200 215 249 258 260 270 272 267 261 263 272 276 278 277 277 272 269 271 272 270 266 264 260 260 256 256 258 256 251 252 246 234 236 226 220 213